sat.trackr.live / text

‹ back to catalog

QIANFAN-141

NORAD 69087 · 2026-104Q

PAYLOAD ACTIVE UNKNOWN

§ Identity

Operator
Country
PRC
Launch date
2026-05-12
Launch site
TAISC
Launch vehicle
Mass (kg)
RCS (m²)

External: N2YO · Heavens-Above · Gunter

§ Orbital elements

Epoch: 2026-09-20T05:10:14.403072Z

Period
106.59 min
Inclination
88.9897°
Eccentricity
0.0002342
Mean motion
13.51020724 rev/d
Perigee alt
1,066.8 km
Apogee alt
1,070.2 km
Semi-major
7,446.6 km
B*
8.9654e-5
RAAN
331.7440°
Arg perigee
112.1598°
Mean anomaly
247.9802°
Rev number
1,800

§ Raw data

QIANFAN-1411 69087U 26104Q   26263.21544448  .00000070  00000+0  89654-4 0  99962 69087  88.9897 331.7440 0002342 112.1598 247.9802 13.51020724 18007

JSON: /api/v1/satellites/69087 · /tle

For live sub-satellite position, see the globe view (requires WebGL).

§ Visibility from observer

Set your observer location to see the next 7 days of passes ≥ 10°. The values pass through the URL so the page stays shareable.

No JS? Fill the form by hand. The geolocation button needs JavaScript.